Weather Roundup
Issued by NWS Springfield, MO

Home | Current Version | Previous Version | Text Only | Print | Product List | Glossary On
Versions: 1 2 3 4 5 6 7 8 9 10 11 12 13 14 15 16 17 18 19 20 21 22 23 24 25 26 27 28 29 30 31 32 33 34 35 36 37 38 39 40 41 42 43 44 45 46 47 48 49 50
000
NZUS99 KSGF 101107
HRRSGF

HOURLY WEATHER
NATIONAL WEATHER SERVICE SPRINGFIELD MO
500 AM CST WED FEB 10 2016

......SGF CWA......

CITY           SKY/WX    TMP DP  RH WIND       PRES   REMARKS
SPRINGFIELD    CLEAR     19   8  62 NW5       30.20R WCI  12
JOPLIN         CLOUDY    21  13  71 SW5       30.25F WCI  15
WEST PLAINS    CLEAR     18   5  57 NW7       30.17R WCI   9
ROLLA          CLEAR     13   7  77 W5        30.14S WCI   5
OSAGE BEACH    CLEAR     19   7  58 W5        30.20S WCI  13

......SURROUNDING SGF CWA......

CITY           SKY/WX    TMP DP  RH WIND       PRES   REMARKS
CHANUTE        CLOUDY    23  14  68 SW7       30.24S WCI  15
PARSONS        CLOUDY    22  14  71 SW3       30.26F
COFFEYVILLE    CLOUDY    23  16  74 S3        30.27S
EMPORIA        CLOUDY    26  15  63 S8        30.18F WCI  18
GROVE OK       MOCLDY    23  18  80 CALM      30.29R
ROGERS AR      CLEAR     19   9  65 S5        30.23F WCI  12
SILOAM SPRINGS CLOUDY    19   3  49 CALM      30.25S
HARRISON AR    CLEAR     21   8  57 W8        30.22R WCI  11
NEAR YELLVILLE CLEAR     25   7  46 W6        30.22R WCI  18

......KANSAS AND MISSOURI......

CITY           SKY/WX    TMP DP  RH WIND       PRES   REMARKS
KANSAS CTY INT CLOUDY    22  14  71 SW7       30.15F WCI  13
DOWNTOWN KC    CLOUDY    24  13  62 SW7       30.18F WCI  16
COLUMBIA       CLEAR     15   8  73 W5        30.16F WCI   8
SEDALIA        CLEAR     19  10  68 W6        30.20F WCI  11
ST JOSEPH      CLOUDY    23  15  71 S7        30.15F WCI  15
ST LOUIS       PTCLDY    17   6  62 NW10      30.17R WCI   5
SPIRIT OF STL  CLEAR     14   7  73 W5        30.18R WCI   6
KIRKSVILLE     CLEAR     12   6  77 W5        30.15S WCI   4
WICHITA        PTCLDY    25  15  66 S12       30.17F WCI  14
TOPEKA         CLOUDY    25  14  63 CALM      30.19F
OLATHE         CLOUDY    21  14  74 S3        30.17F

......TENNESSEE......

CITY           SKY/WX    TMP DP  RH WIND       PRES   REMARKS
MEMPHIS        CLEAR     25   8  48 NW8       30.22R WCI  16
NASHVILLE      LGT SNOW  21  15  78 NW10      30.12R WCI  10

......ARKANSAS.......

CITY           SKY/WX    TMP DP  RH WIND       PRES   REMARKS
FAYETTEVILLE   CLEAR     16  10  77 CALM      30.25F
FT SMITH       CLEAR     25   9  50 CALM      30.31S
LITTLE ROCK    CLEAR     30   7  37 NW9       30.31R WCI  22

......OKLAHOMA.......

CITY           SKY/WX    TMP DP  RH WIND       PRES   REMARKS
TULSA          PTCLDY    28  12  51 SW3       30.30R
PONCA CITY     CLEAR     26  14  60 S7        30.25F WCI  18
MCALESTER      PTCLDY    24  16  71 CALM      30.32R
OKLAHOMA CITY  CLEAR     25  21  85 CALM      30.26S

......IOWA............

CITY           SKY/WX    TMP DP  RH WIND       PRES   REMARKS
DES MOINES     CLOUDY    16   6  65 NE5       30.13S WCI   9
QUAD CITIES    PTCLDY     8  -1  66 W7        30.09F WCI  -3

......ILLINOIS........

CITY           SKY/WX    TMP DP  RH WIND       PRES   REMARKS
QUINCY         CLOUDY    11   4  73 W6        30.13F WCI   1
CHICAGO        PTCLDY    10   0  63 NW16      29.97S WCI  -7



USA.gov is the U.S. government's official web portal to all federal, state and local government web resources and services.